Time,TemperatureF,DewpointF,PressureIn,WindDirection,WindDirectionDegrees,WindSpeedMPH,WindSpeedGustMPH,Humidity,HourlyPrecipIn,Conditions,Clouds,dailyrainin,SoftwareType,DateUTC
2013-08-23 00:02:00,78.6,69.6,30.12,ESE,113,8.0,12.0,74,0.00,,,0.00,meteohub,2013-08-23 05:02:00,
2013-08-23 00:07:00,78.4,69.4,30.12,SE,138,6.0,12.0,74,0.00,,,0.00,meteohub,2013-08-23 05:07:00,
2013-08-23 00:12:00,78.4,69.8,30.12,ESE,106,8.0,11.0,75,0.00,,,0.00,meteohub,2013-08-23 05:12:00,
2013-08-23 00:17:00,78.3,69.6,30.12,ESE,120,5.0,11.0,75,0.00,,,0.00,meteohub,2013-08-23 05:17:00,
2013-08-23 00:22:00,78.3,69.6,30.12,East,81,5.0,9.0,75,0.00,,,0.00,meteohub,2013-08-23 05:22:00,
2013-08-23 00:27:00,78.1,69.4,30.12,ESE,119,5.0,9.0,75,0.00,,,0.00,meteohub,2013-08-23 05:27:00,
2013-08-23 00:32:00,78.1,69.4,30.12,ESE,109,7.0,9.0,75,0.00,,,0.00,meteohub,2013-08-23 05:32:00,
2013-08-23 00:37:00,77.9,69.3,30.12,ESE,121,4.0,10.0,75,0.00,,,0.00,meteohub,2013-08-23 05:37:00,
2013-08-23 00:42:00,78.1,69.4,30.12,ESE,111,7.0,10.0,75,0.00,,,0.00,meteohub,2013-08-23 05:42:00,
2013-08-23 00:47:00,77.9,69.3,30.12,SE,136,5.0,12.0,75,0.00,,,0.00,meteohub,2013-08-23 05:47:00,
2013-08-23 00:52:00,77.7,69.6,30.12,ESE,116,5.0,12.0,76,0.00,,,0.00,meteohub,2013-08-23 05:52:00,
2013-08-23 00:57:00,77.7,69.6,30.12,ESE,106,3.0,10.0,76,0.00,,,0.00,meteohub,2013-08-23 05:57:00,
2013-08-23 01:02:00,77.5,69.4,30.12,ESE,115,4.0,10.0,76,0.00,,,0.00,meteohub,2013-08-23 06:02:00,
2013-08-23 01:07:00,77.5,69.4,30.12,SE,128,6.0,10.0,76,0.00,,,0.00,meteohub,2013-08-23 06:07:00,
2013-08-23 01:12:00,77.5,69.4,30.12,ESE,118,5.0,10.0,76,0.00,,,0.00,meteohub,2013-08-23 06:12:00,
2013-08-23 01:17:00,77.5,69.4,30.12,ESE,111,7.0,12.0,76,0.00,,,0.00,meteohub,2013-08-23 06:17:00,
2013-08-23 01:22:00,77.4,69.3,30.12,ESE,103,6.0,12.0,76,0.00,,,0.00,meteohub,2013-08-23 06:22:00,
2013-08-23 01:27:00,77.4,69.3,30.12,SE,127,6.0,11.0,76,0.00,,,0.00,meteohub,2013-08-23 06:27:00,
2013-08-23 01:32:00,77.4,69.6,30.12,SSE,163,2.0,9.0,77,0.00,,,0.00,meteohub,2013-08-23 06:32:00,
2013-08-23 01:38:00,77.2,69.4,30.12,ESE,114,5.0,9.0,77,0.00,,,0.00,meteohub,2013-08-23 06:38:00,
2013-08-23 01:43:00,77.2,69.4,30.12,ESE,113,5.0,9.0,77,0.00,,,0.00,meteohub,2013-08-23 06:43:00,
2013-08-23 01:48:00,77.0,69.3,30.12,SE,129,4.0,9.0,77,0.00,,,0.00,meteohub,2013-08-23 06:48:00,
2013-08-23 01:53:00,76.8,69.1,30.12,ESE,113,5.0,9.0,77,0.00,,,0.00,meteohub,2013-08-23 06:53:00,
2013-08-23 01:58:00,76.8,69.1,30.12,SSE,153,2.0,9.0,77,0.00,,,0.00,meteohub,2013-08-23 06:58:00,
2013-08-23 02:03:00,76.6,69.3,30.12,SE,127,3.0,8.0,78,0.00,,,0.00,meteohub,2013-08-23 07:03:00,
2013-08-23 02:08:00,76.6,69.3,30.12,ESE,106,3.0,8.0,78,0.00,,,0.00,meteohub,2013-08-23 07:08:00,
2013-08-23 02:13:00,76.6,69.3,30.11,SE,136,5.0,9.0,78,0.00,,,0.00,meteohub,2013-08-23 07:13:00,
2013-08-23 02:18:00,76.5,69.1,30.11,SSE,150,4.0,11.0,78,0.00,,,0.00,meteohub,2013-08-23 07:18:00,
2013-08-23 02:23:00,76.5,69.1,30.12,SE,127,3.0,11.0,78,0.00,,,0.00,meteohub,2013-08-23 07:23:00,
2013-08-23 02:28:00,76.3,69.3,30.12,SE,127,6.0,11.0,79,0.00,,,0.00,meteohub,2013-08-23 07:28:00,
2013-08-23 02:33:00,76.3,69.3,30.12,SE,131,4.0,8.0,79,0.00,,,0.00,meteohub,2013-08-23 07:33:00,
2013-08-23 02:38:00,76.1,69.1,30.12,ESE,115,6.0,8.0,79,0.00,,,0.00,meteohub,2013-08-23 07:38:00,
2013-08-23 02:43:00,75.9,68.9,30.12,SSE,158,2.0,8.0,79,0.00,,,0.00,meteohub,2013-08-23 07:43:00,
2013-08-23 02:48:00,75.7,69.1,30.12,ESE,106,2.0,8.0,80,0.00,,,0.00,meteohub,2013-08-23 07:48:00,
2013-08-23 02:53:00,75.7,69.1,30.12,SE,141,3.0,8.0,80,0.00,,,0.00,meteohub,2013-08-23 07:53:00,
2013-08-23 02:58:00,75.6,68.9,30.12,South,179,4.0,6.0,80,0.00,,,0.00,meteohub,2013-08-23 07:58:00,
2013-08-23 03:03:00,75.6,68.9,30.12,SSE,165,4.0,6.0,80,0.00,,,0.00,meteohub,2013-08-23 08:03:00,
2013-08-23 03:08:00,75.6,68.9,30.12,SE,134,3.0,6.0,80,0.00,,,0.00,meteohub,2013-08-23 08:08:00,
2013-08-23 03:13:00,75.4,69.1,30.12,SE,124,4.0,9.0,81,0.00,,,0.00,meteohub,2013-08-23 08:13:00,
2013-08-23 03:18:00,75.4,69.1,30.12,East,89,4.0,9.0,81,0.00,,,0.00,meteohub,2013-08-23 08:18:00,
2013-08-23 03:23:00,75.4,69.1,30.12,SE,127,1.0,9.0,81,0.00,,,0.00,meteohub,2013-08-23 08:23:00,
2013-08-23 03:28:00,75.4,69.1,30.11,ESE,121,5.0,7.0,81,0.00,,,0.00,meteohub,2013-08-23 08:28:00,
2013-08-23 03:33:00,75.4,69.1,30.11,ESE,116,6.0,7.0,81,0.00,,,0.00,meteohub,2013-08-23 08:33:00,
2013-08-23 03:38:00,75.4,69.1,30.11,ESE,111,3.0,8.0,81,0.00,,,0.00,meteohub,2013-08-23 08:38:00,
2013-08-23 03:43:00,75.2,68.9,30.11,ESE,111,4.0,9.0,81,0.00,,,0.00,meteohub,2013-08-23 08:43:00,
2013-08-23 03:48:00,75.0,68.7,30.11,ESE,113,3.0,9.0,81,0.00,,,0.00,meteohub,2013-08-23 08:48:00,
2013-08-23 03:53:00,75.0,68.7,30.11,SE,124,2.0,8.0,81,0.00,,,0.00,meteohub,2013-08-23 08:53:00,
2013-08-23 03:58:00,75.0,69.1,30.11,ESE,108,2.0,8.0,82,0.00,,,0.00,meteohub,2013-08-23 08:58:00,
2013-08-23 04:03:00,75.0,69.1,30.11,SE,139,2.0,6.0,82,0.00,,,0.00,meteohub,2013-08-23 09:03:00,
2013-08-23 04:08:00,74.8,68.9,30.11,ESE,123,3.0,6.0,82,0.00,,,0.00,meteohub,2013-08-23 09:08:00,
2013-08-23 04:13:00,74.8,68.9,30.11,ESE,116,2.0,6.0,82,0.00,,,0.00,meteohub,2013-08-23 09:13:00,
2013-08-23 04:18:00,74.8,68.9,30.11,ESE,122,3.0,5.0,82,0.00,,,0.00,meteohub,2013-08-23 09:18:00,
2013-08-23 04:23:00,74.8,68.9,30.11,SE,145,1.0,5.0,82,0.00,,,0.00,meteohub,2013-08-23 09:23:00,
2013-08-23 04:28:00,74.8,68.9,30.11,ESE,104,2.0,7.0,82,0.00,,,0.00,meteohub,2013-08-23 09:28:00,
2013-08-23 04:33:00,74.7,68.7,30.11,ESE,109,5.0,7.0,82,0.00,,,0.00,meteohub,2013-08-23 09:33:00,
2013-08-23 04:38:00,74.7,68.7,30.10,ESE,118,6.0,6.0,82,0.00,,,0.00,meteohub,2013-08-23 09:38:00,
2013-08-23 04:43:00,74.7,68.7,30.10,ESE,122,5.0,7.0,82,0.00,,,0.00,meteohub,2013-08-23 09:43:00,
2013-08-23 04:49:00,74.5,68.9,30.10,East,89,3.0,8.0,83,0.00,,,0.00,meteohub,2013-08-23 09:49:00,
2013-08-23 04:54:00,74.5,68.9,30.10,East,97,4.0,8.0,83,0.00,,,0.00,meteohub,2013-08-23 09:54:00,
2013-08-23 04:58:00,74.5,68.9,30.11,East,92,4.0,8.0,83,0.00,,,0.00,meteohub,2013-08-23 09:58:00,
2013-08-23 05:04:00,74.5,68.9,30.11,East,80,5.0,7.0,83,0.00,,,0.00,meteohub,2013-08-23 10:04:00,
2013-08-23 05:09:00,74.5,68.9,30.11,East,96,4.0,6.0,83,0.00,,,0.00,meteohub,2013-08-23 10:09:00,
2013-08-23 05:14:00,74.3,68.7,30.11,ESE,105,5.0,6.0,83,0.00,,,0.00,meteohub,2013-08-23 10:14:00,
2013-08-23 05:19:00,74.1,68.5,30.10,ESE,110,3.0,6.0,83,0.00,,,0.00,meteohub,2013-08-23 10:19:00,
2013-08-23 05:24:00,74.3,68.7,30.10,ESE,109,5.0,7.0,83,0.00,,,0.00,meteohub,2013-08-23 10:24:00,
2013-08-23 05:29:00,74.3,68.7,30.10,SE,134,2.0,7.0,83,0.00,,,0.00,meteohub,2013-08-23 10:29:00,
2013-08-23 05:34:00,74.5,68.5,30.10,East,85,6.0,7.0,82,0.00,,,0.00,meteohub,2013-08-23 10:34:00,
2013-08-23 05:39:00,74.5,68.5,30.11,ENE,74,2.0,7.0,82,0.00,,,0.00,meteohub,2013-08-23 10:39:00,
2013-08-23 05:44:00,74.3,68.4,30.11,ESE,119,3.0,8.0,82,0.00,,,0.00,meteohub,2013-08-23 10:44:00,
2013-08-23 05:49:00,74.3,68.4,30.11,East,98,4.0,8.0,82,0.00,,,0.00,meteohub,2013-08-23 10:49:00,
2013-08-23 05:54:00,74.1,68.2,30.11,East,94,4.0,7.0,82,0.00,,,0.00,meteohub,2013-08-23 10:54:00,
2013-08-23 05:59:00,74.1,68.2,30.11,East,89,6.0,7.0,82,0.00,,,0.00,meteohub,2013-08-23 10:59:00,
2013-08-23 06:04:00,74.5,68.5,30.11,ESE,105,6.0,9.0,82,0.00,,,0.00,meteohub,2013-08-23 11:04:00,
2013-08-23 06:09:00,74.8,68.5,30.11,ESE,106,6.0,9.0,81,0.00,,,0.00,meteohub,2013-08-23 11:09:00,
2013-08-23 06:14:00,74.7,68.4,30.11,ESE,103,9.0,12.0,81,0.00,,,0.00,meteohub,2013-08-23 11:14:00,
2013-08-23 06:19:00,74.7,68.4,30.11,ESE,121,8.0,12.0,81,0.00,,,0.00,meteohub,2013-08-23 11:19:00,
2013-08-23 06:24:00,74.7,68.4,30.11,ESE,121,6.0,12.0,81,0.00,,,0.00,meteohub,2013-08-23 11:24:00,
2013-08-23 06:29:00,74.7,68.4,30.11,East,99,3.0,9.0,81,0.00,,,0.00,meteohub,2013-08-23 11:29:00,
2013-08-23 06:34:00,74.7,68.4,30.11,East,98,7.0,8.0,81,0.00,,,0.00,meteohub,2013-08-23 11:34:00,
2013-08-23 06:39:00,74.5,68.2,30.11,SE,124,3.0,8.0,81,0.00,,,0.00,meteohub,2013-08-23 11:39:00,
2013-08-23 06:44:00,74.5,68.2,30.11,ESE,114,4.0,8.0,81,0.00,,,0.00,meteohub,2013-08-23 11:44:00,
2013-08-23 06:49:00,74.5,68.2,30.11,East,100,7.0,8.0,81,0.00,,,0.00,meteohub,2013-08-23 11:49:00,
2013-08-23 06:54:00,74.7,68.0,30.11,ESE,105,4.0,11.0,80,0.00,,,0.00,meteohub,2013-08-23 11:54:00,
2013-08-23 06:59:00,74.7,68.0,30.11,East,84,3.0,11.0,80,0.00,,,0.00,meteohub,2013-08-23 11:59:00,
2013-08-23 07:04:00,74.7,68.4,30.11,East,90,6.0,11.0,81,0.00,,,0.00,meteohub,2013-08-23 12:04:00,
2013-08-23 07:09:00,74.5,67.8,30.11,ESE,108,6.0,8.0,80,0.00,,,0.00,meteohub,2013-08-23 12:09:00,
2013-08-23 07:14:00,74.7,68.0,30.11,East,96,4.0,8.0,80,0.00,,,0.00,meteohub,2013-08-23 12:14:00,
2013-08-23 07:19:00,74.7,68.0,30.11,ESE,118,7.0,8.0,80,0.00,,,0.00,meteohub,2013-08-23 12:19:00,
2013-08-23 07:24:00,74.8,68.2,30.12,ESE,118,5.0,8.0,80,0.00,,,0.00,meteohub,2013-08-23 12:24:00,
2013-08-23 07:29:00,74.8,67.8,30.12,East,101,5.0,8.0,79,0.00,,,0.00,meteohub,2013-08-23 12:29:00,
2013-08-23 07:34:00,75.0,68.0,30.12,ESE,108,5.0,7.0,79,0.00,,,0.00,meteohub,2013-08-23 12:34:00,
2013-08-23 07:39:00,75.0,68.0,30.12,East,87,2.0,7.0,79,0.00,,,0.00,meteohub,2013-08-23 12:39:00,
2013-08-23 07:44:00,75.4,68.0,30.12,ESE,118,4.0,8.0,78,0.00,,,0.00,meteohub,2013-08-23 12:44:00,
2013-08-23 07:50:00,75.6,67.8,30.12,East,81,7.0,10.0,77,0.00,,,0.00,meteohub,2013-08-23 12:50:00,
2013-08-23 07:54:00,75.9,67.8,30.12,SE,124,5.0,11.0,76,0.00,,,0.00,meteohub,2013-08-23 12:54:00,
2013-08-23 08:00:00,76.3,67.8,30.13,East,100,7.0,11.0,75,0.00,,,0.00,meteohub,2013-08-23 13:00:00,
2013-08-23 08:05:00,76.3,67.8,30.13,ESE,103,5.0,13.0,75,0.00,,,0.00,meteohub,2013-08-23 13:05:00,
2013-08-23 08:10:00,76.3,67.8,30.13,ESE,110,7.0,13.0,75,0.00,,,0.00,meteohub,2013-08-23 13:10:00,
2013-08-23 08:15:00,76.3,67.8,30.13,ESE,111,9.0,13.0,75,0.00,,,0.00,meteohub,2013-08-23 13:15:00,
2013-08-23 08:20:00,76.5,67.6,30.13,SE,124,4.0,10.0,74,0.00,,,0.00,meteohub,2013-08-23 13:20:00,
2013-08-23 08:25:00,76.5,68.0,30.13,SE,129,5.0,13.0,75,0.00,,,0.00,meteohub,2013-08-23 13:25:00,
2013-08-23 08:30:00,76.5,68.0,30.13,ESE,109,10.0,13.0,75,0.00,,,0.00,meteohub,2013-08-23 13:30:00,
2013-08-23 08:35:00,76.6,68.2,30.13,ESE,114,6.0,13.0,75,0.00,,,0.00,meteohub,2013-08-23 13:35:00,
2013-08-23 08:40:00,76.8,67.8,30.13,ESE,114,3.0,11.0,74,0.00,,,0.00,meteohub,2013-08-23 13:40:00,
2013-08-23 08:45:00,77.2,68.2,30.13,SE,145,3.0,11.0,74,0.00,,,0.00,meteohub,2013-08-23 13:45:00,
2013-08-23 08:50:00,77.2,68.2,30.13,ESE,118,5.0,11.0,74,0.00,,,0.00,meteohub,2013-08-23 13:50:00,
2013-08-23 08:55:00,77.2,68.2,30.13,SE,132,3.0,11.0,74,0.00,,,0.00,meteohub,2013-08-23 13:55:00,
2013-08-23 09:00:00,77.5,68.2,30.13,East,98,6.0,11.0,73,0.00,,,0.00,meteohub,2013-08-23 14:00:00,
2013-08-23 09:05:00,78.1,68.7,30.13,ESE,109,14.0,14.0,73,0.00,,,0.00,meteohub,2013-08-23 14:05:00,
2013-08-23 09:10:00,78.3,68.9,30.13,SE,142,4.0,12.0,73,0.00,,,0.00,meteohub,2013-08-23 14:10:00,
2013-08-23 09:15:00,78.3,68.5,30.13,ESE,113,4.0,14.0,72,0.00,,,0.00,meteohub,2013-08-23 14:15:00,
2013-08-23 09:20:00,78.3,68.5,30.13,SE,127,10.0,14.0,72,0.00,,,0.00,meteohub,2013-08-23 14:20:00,
2013-08-23 09:25:00,78.6,68.9,30.13,SSE,153,4.0,12.0,72,0.00,,,0.00,meteohub,2013-08-23 14:25:00,
2013-08-23 09:30:00,79.0,69.3,30.12,SSE,148,5.0,14.0,72,0.00,,,0.00,meteohub,2013-08-23 14:30:00,
2013-08-23 09:35:00,79.3,69.1,30.12,SE,136,6.0,14.0,71,0.00,,,0.00,meteohub,2013-08-23 14:35:00,
2013-08-23 09:40:00,79.7,69.4,30.12,ESE,112,6.0,14.0,71,0.00,,,0.00,meteohub,2013-08-23 14:40:00,
2013-08-23 09:45:00,79.9,69.3,30.12,SE,129,10.0,14.0,70,0.00,,,0.00,meteohub,2013-08-23 14:45:00,
2013-08-23 09:50:00,80.4,69.8,30.12,SE,131,6.0,14.0,70,0.00,,,0.00,meteohub,2013-08-23 14:50:00,
2013-08-23 09:55:00,80.8,69.6,30.12,SE,146,8.0,14.0,69,0.00,,,0.00,meteohub,2013-08-23 14:55:00,
2013-08-23 10:00:00,81.0,69.8,30.12,SE,140,6.0,14.0,69,0.00,,,0.00,meteohub,2013-08-23 15:00:00,
2013-08-23 10:05:00,81.5,70.0,30.12,South,176,4.0,14.0,68,0.00,,,0.00,meteohub,2013-08-23 15:05:00,
2013-08-23 10:10:00,81.3,69.8,30.12,SE,130,4.0,13.0,68,0.00,,,0.00,meteohub,2013-08-23 15:10:00,
2013-08-23 10:15:00,81.7,70.2,30.12,SSE,160,7.0,14.0,68,0.00,,,0.00,meteohub,2013-08-23 15:15:00,
2013-08-23 10:20:00,82.0,70.0,30.12,SSE,158,3.0,14.0,67,0.00,,,0.00,meteohub,2013-08-23 15:20:00,
2013-08-23 10:25:00,82.6,70.5,30.12,SE,138,7.0,14.0,67,0.00,,,0.00,meteohub,2013-08-23 15:25:00,
2013-08-23 10:30:00,82.8,70.2,30.12,SE,138,6.0,12.0,66,0.00,,,0.00,meteohub,2013-08-23 15:30:00,
2013-08-23 10:35:00,82.8,70.7,30.12,SSW,197,2.0,12.0,67,0.00,,,0.00,meteohub,2013-08-23 15:35:00,
2013-08-23 10:40:00,82.6,70.5,30.12,SE,139,7.0,12.0,67,0.00,,,0.00,meteohub,2013-08-23 15:40:00,
2013-08-23 10:45:00,82.9,71.2,30.12,SSE,153,5.0,13.0,68,0.00,,,0.00,meteohub,2013-08-23 15:45:00,
2013-08-23 10:50:00,83.1,71.1,30.12,ESE,122,9.0,13.0,67,0.00,,,0.00,meteohub,2013-08-23 15:50:00,
2013-08-23 10:55:00,83.1,71.1,30.12,SSE,152,8.0,13.0,67,0.00,,,0.00,meteohub,2013-08-23 15:55:00,
2013-08-23 11:00:00,83.7,71.1,30.12,ESE,118,5.0,11.0,66,0.00,,,0.00,meteohub,2013-08-23 16:00:00,
2013-08-23 11:05:00,83.7,71.1,30.12,SW,228,4.0,12.0,66,0.00,,,0.00,meteohub,2013-08-23 16:05:00,
2013-08-23 11:10:00,85.1,71.6,30.12,SSE,155,6.0,13.0,64,0.00,,,0.00,meteohub,2013-08-23 16:10:00,
2013-08-23 11:15:00,84.9,71.4,30.12,ESE,110,10.0,13.0,64,0.00,,,0.00,meteohub,2013-08-23 16:15:00,
2013-08-23 11:20:00,85.6,71.1,30.12,South,172,2.0,12.0,62,0.00,,,0.00,meteohub,2013-08-23 16:20:00,
2013-08-23 11:25:00,86.0,71.1,30.12,SE,127,5.0,12.0,61,0.00,,,0.00,meteohub,2013-08-23 16:25:00,
2013-08-23 11:30:00,85.6,71.1,30.11,SE,141,8.0,10.0,62,0.00,,,0.00,meteohub,2013-08-23 16:30:00,
2013-08-23 11:35:00,85.5,70.9,30.11,SE,146,6.0,11.0,62,0.00,,,0.00,meteohub,2013-08-23 16:35:00,
2013-08-23 11:40:00,85.5,70.5,30.11,ESE,106,10.0,11.0,61,0.00,,,0.00,meteohub,2013-08-23 16:40:00,
2013-08-23 11:45:00,85.5,70.9,30.11,ESE,105,12.0,12.0,62,0.00,,,0.00,meteohub,2013-08-23 16:45:00,
2013-08-23 11:50:00,86.2,71.6,30.11,SW,231,2.0,12.0,62,0.00,,,0.00,meteohub,2013-08-23 16:50:00,
2013-08-23 11:55:00,86.4,71.2,30.11,ESE,105,8.0,12.0,61,0.00,,,0.00,meteohub,2013-08-23 16:55:00,
2013-08-23 12:00:00,86.4,71.2,30.11,SE,136,5.0,12.0,61,0.00,,,0.00,meteohub,2013-08-23 17:00:00,
2013-08-23 12:05:00,86.5,71.4,30.10,SSE,148,5.0,12.0,61,0.00,,,0.00,meteohub,2013-08-23 17:05:00,
2013-08-23 12:10:00,87.1,71.1,30.10,ESE,117,7.0,12.0,59,0.00,,,0.00,meteohub,2013-08-23 17:10:00,
2013-08-23 12:15:00,87.6,71.6,30.10,SE,127,6.0,12.0,59,0.00,,,0.00,meteohub,2013-08-23 17:15:00,
2013-08-23 12:21:00,87.4,71.8,30.10,ESE,110,10.0,14.0,60,0.00,,,0.00,meteohub,2013-08-23 17:21:00,
2013-08-23 12:26:00,87.3,71.6,30.10,SE,136,3.0,14.0,60,0.00,,,0.00,meteohub,2013-08-23 17:26:00,
2013-08-23 12:31:00,87.6,71.6,30.10,SE,127,6.0,13.0,59,0.00,,,0.00,meteohub,2013-08-23 17:31:00,
2013-08-23 12:36:00,88.0,71.4,30.10,SE,127,5.0,13.0,58,0.00,,,0.00,meteohub,2013-08-23 17:36:00,
2013-08-23 12:41:00,88.2,71.6,30.09,ESE,105,11.0,13.0,58,0.00,,,0.00,meteohub,2013-08-23 17:41:00,
2013-08-23 12:46:00,87.8,71.6,30.09,ESE,113,8.0,15.0,59,0.00,,,0.00,meteohub,2013-08-23 17:46:00,
2013-08-23 12:51:00,88.2,71.6,30.09,ESE,122,5.0,15.0,58,0.00,,,0.00,meteohub,2013-08-23 17:51:00,
2013-08-23 12:56:00,88.3,71.6,30.09,ESE,115,11.0,15.0,58,0.00,,,0.00,meteohub,2013-08-23 17:56:00,
2013-08-23 13:01:00,89.1,70.7,30.09,SE,138,7.0,13.0,55,0.00,,,0.00,meteohub,2013-08-23 18:01:00,
2013-08-23 13:06:00,89.2,71.4,30.09,SE,127,5.0,13.0,56,0.00,,,0.00,meteohub,2013-08-23 18:06:00,
2013-08-23 13:11:00,89.4,70.5,30.09,SE,141,7.0,15.0,54,0.00,,,0.00,meteohub,2013-08-23 18:11:00,
2013-08-23 13:16:00,89.2,70.3,30.09,ESE,109,10.0,15.0,54,0.00,,,0.00,meteohub,2013-08-23 18:16:00,
2013-08-23 13:21:00,89.6,70.7,30.08,SSE,152,6.0,15.0,54,0.00,,,0.00,meteohub,2013-08-23 18:21:00,
2013-08-23 13:26:00,89.8,70.9,30.08,SSE,150,6.0,15.0,54,0.00,,,0.00,meteohub,2013-08-23 18:26:00,
2013-08-23 13:31:00,90.1,70.7,30.08,SE,127,7.0,15.0,53,0.00,,,0.00,meteohub,2013-08-23 18:31:00,
2013-08-23 13:36:00,90.3,70.3,30.08,ESE,110,9.0,14.0,52,0.00,,,0.00,meteohub,2013-08-23 18:36:00,
2013-08-23 13:41:00,90.7,70.7,30.08,ESE,105,9.0,16.0,52,0.00,,,0.00,meteohub,2013-08-23 18:41:00,
2013-08-23 13:46:00,90.7,71.2,30.08,SE,146,5.0,16.0,53,0.00,,,0.00,meteohub,2013-08-23 18:46:00,
2013-08-23 13:51:00,91.0,70.9,30.07,ESE,106,12.0,15.0,52,0.00,,,0.00,meteohub,2013-08-23 18:51:00,
2013-08-23 13:56:00,91.0,70.9,30.07,ENE,60,8.0,15.0,52,0.00,,,0.00,meteohub,2013-08-23 18:56:00,
2013-08-23 14:01:00,91.0,70.9,30.07,ESE,102,11.0,18.0,52,0.00,,,0.00,meteohub,2013-08-23 19:01:00,
2013-08-23 14:06:00,91.0,70.9,30.07,ESE,111,12.0,16.0,52,0.00,,,0.00,meteohub,2013-08-23 19:06:00,
2013-08-23 14:11:00,90.7,71.2,30.07,ESE,105,12.0,15.0,53,0.00,,,0.00,meteohub,2013-08-23 19:11:00,
2013-08-23 14:16:00,91.0,71.6,30.07,SSE,159,7.0,16.0,53,0.00,,,0.00,meteohub,2013-08-23 19:16:00,
2013-08-23 14:21:00,91.2,70.5,30.07,ESE,109,11.0,16.0,51,0.00,,,0.00,meteohub,2013-08-23 19:21:00,
2013-08-23 14:26:00,91.6,71.4,30.06,SE,130,10.0,16.0,52,0.00,,,0.00,meteohub,2013-08-23 19:26:00,
2013-08-23 14:31:00,91.6,70.3,30.06,ESE,105,15.0,18.0,50,0.00,,,0.00,meteohub,2013-08-23 19:31:00,
2013-08-23 14:36:00,91.4,70.7,30.06,ESE,113,12.0,18.0,51,0.00,,,0.00,meteohub,2013-08-23 19:36:00,
2013-08-23 14:41:00,91.2,71.1,30.06,East,100,8.0,18.0,52,0.00,,,0.00,meteohub,2013-08-23 19:41:00,
2013-08-23 14:46:00,91.2,71.1,30.06,SE,129,10.0,19.0,52,0.00,,,0.00,meteohub,2013-08-23 19:46:00,
2013-08-23 14:51:00,91.0,70.9,30.06,ESE,110,10.0,19.0,52,0.00,,,0.00,meteohub,2013-08-23 19:51:00,
2013-08-23 14:56:00,91.8,70.5,30.05,SSE,155,4.0,19.0,50,0.00,,,0.00,meteohub,2013-08-23 19:56:00,
2013-08-23 15:01:00,91.8,69.8,30.06,South,173,7.0,17.0,49,0.00,,,0.00,meteohub,2013-08-23 20:01:00,
2013-08-23 15:06:00,91.8,69.8,30.05,ESE,119,7.0,16.0,49,0.00,,,0.00,meteohub,2013-08-23 20:06:00,
2013-08-23 15:11:00,91.6,70.3,30.05,ESE,119,9.0,16.0,50,0.00,,,0.00,meteohub,2013-08-23 20:11:00,
2013-08-23 15:16:00,92.1,70.9,30.05,SSW,198,4.0,20.0,50,0.00,,,0.00,meteohub,2013-08-23 20:16:00,
2013-08-23 15:21:00,92.5,71.1,30.05,ESE,112,15.0,20.0,50,0.00,,,0.00,meteohub,2013-08-23 20:21:00,
2013-08-23 15:26:00,92.1,70.9,30.05,ESE,115,11.0,18.0,50,0.00,,,0.00,meteohub,2013-08-23 20:26:00,
2013-08-23 15:31:00,92.7,70.7,30.04,SE,128,11.0,18.0,49,0.00,,,0.00,meteohub,2013-08-23 20:31:00,
2013-08-23 15:36:00,92.3,70.3,30.04,SE,138,9.0,18.0,49,0.00,,,0.00,meteohub,2013-08-23 20:36:00,
2013-08-23 15:41:00,92.5,70.5,30.04,South,176,4.0,18.0,49,0.00,,,0.00,meteohub,2013-08-23 20:41:00,
2013-08-23 15:46:00,92.5,70.5,30.04,ESE,110,12.0,18.0,49,0.00,,,0.00,meteohub,2013-08-23 20:46:00,
2013-08-23 15:51:00,91.8,69.8,30.04,ESE,110,18.0,18.0,49,0.00,,,0.00,meteohub,2013-08-23 20:51:00,
2013-08-23 15:56:00,91.6,69.8,30.04,ESE,103,12.0,18.0,49,0.00,,,0.00,meteohub,2013-08-23 20:56:00,
2013-08-23 16:01:00,91.2,69.4,30.04,ESE,108,16.0,18.0,49,0.00,,,0.00,meteohub,2013-08-23 21:01:00,
2013-08-23 16:06:00,91.2,69.4,30.04,ESE,119,7.0,19.0,49,0.00,,,0.00,meteohub,2013-08-23 21:06:00,
2013-08-23 16:11:00,91.2,68.7,30.04,ESE,115,12.0,19.0,48,0.00,,,0.00,meteohub,2013-08-23 21:11:00,
2013-08-23 16:16:00,91.2,69.4,30.04,SE,126,7.0,20.0,49,0.00,,,0.00,meteohub,2013-08-23 21:16:00,
2013-08-23 16:21:00,91.8,69.3,30.04,ESE,122,13.0,20.0,48,0.00,,,0.00,meteohub,2013-08-23 21:21:00,
2013-08-23 16:26:00,91.9,69.4,30.04,ESE,119,12.0,20.0,48,0.00,,,0.00,meteohub,2013-08-23 21:26:00,
2013-08-23 16:31:00,92.1,69.6,30.04,SE,129,9.0,18.0,48,0.00,,,0.00,meteohub,2013-08-23 21:31:00,
2013-08-23 16:36:00,92.1,69.6,30.04,ESE,119,8.0,18.0,48,0.00,,,0.00,meteohub,2013-08-23 21:36:00,
2013-08-23 16:41:00,91.8,69.3,30.04,ESE,113,14.0,21.0,48,0.00,,,0.00,meteohub,2013-08-23 21:41:00,
2013-08-23 16:46:00,91.9,69.4,30.04,East,98,9.0,21.0,48,0.00,,,0.00,meteohub,2013-08-23 21:46:00,
2013-08-23 16:51:00,91.8,69.3,30.03,ESE,108,14.0,21.0,48,0.00,,,0.00,meteohub,2013-08-23 21:51:00,
2013-08-23 16:56:00,91.8,69.8,30.04,SE,134,13.0,21.0,49,0.00,,,0.00,meteohub,2013-08-23 21:56:00,
2013-08-23 17:01:00,91.8,70.5,30.03,SSE,158,4.0,21.0,50,0.00,,,0.00,meteohub,2013-08-23 22:01:00,
2013-08-23 17:06:00,91.6,69.8,30.03,ESE,113,11.0,21.0,49,0.00,,,0.00,meteohub,2013-08-23 22:06:00,
2013-08-23 17:11:00,91.6,69.8,30.03,East,85,19.0,21.0,49,0.00,,,0.00,meteohub,2013-08-23 22:11:00,
2013-08-23 17:16:00,91.2,70.0,30.03,ESE,117,15.0,21.0,50,0.00,,,0.00,meteohub,2013-08-23 22:16:00,
2013-08-23 17:21:00,91.0,69.8,30.03,ESE,105,13.0,21.0,50,0.00,,,0.00,meteohub,2013-08-23 22:21:00,
2013-08-23 17:26:00,90.7,70.0,30.03,ESE,115,11.0,21.0,51,0.00,,,0.00,meteohub,2013-08-23 22:26:00,
2013-08-23 17:32:00,90.7,70.0,30.03,SSE,152,8.0,21.0,51,0.00,,,0.00,meteohub,2013-08-23 22:32:00,
2013-08-23 17:37:00,90.5,70.0,30.03,ESE,106,17.0,21.0,51,0.00,,,0.00,meteohub,2013-08-23 22:37:00,
2013-08-23 17:42:00,90.7,70.0,30.03,East,101,17.0,22.0,51,0.00,,,0.00,meteohub,2013-08-23 22:42:00,
2013-08-23 17:47:00,91.0,69.8,30.04,ESE,109,11.0,22.0,50,0.00,,,0.00,meteohub,2013-08-23 22:47:00,
2013-08-23 17:52:00,91.0,70.3,30.04,SSE,163,6.0,22.0,51,0.00,,,0.00,meteohub,2013-08-23 22:52:00,
2013-08-23 17:57:00,91.2,70.0,30.03,SSE,149,11.0,21.0,50,0.00,,,0.00,meteohub,2013-08-23 22:57:00,
2013-08-23 18:02:00,91.2,70.5,30.04,South,172,11.0,17.0,51,0.00,,,0.00,meteohub,2013-08-23 23:02:00,
2013-08-23 18:07:00,91.0,69.8,30.03,ESE,105,13.0,19.0,50,0.00,,,0.00,meteohub,2013-08-23 23:07:00,
2013-08-23 18:12:00,90.9,70.2,30.03,ESE,105,14.0,20.0,51,0.00,,,0.00,meteohub,2013-08-23 23:12:00,
2013-08-23 18:17:00,90.7,70.7,30.03,ESE,115,14.0,20.0,52,0.00,,,0.00,meteohub,2013-08-23 23:17:00,
2013-08-23 18:22:00,90.5,71.1,30.03,ESE,121,11.0,20.0,53,0.00,,,0.00,meteohub,2013-08-23 23:22:00,
2013-08-23 18:27:00,90.3,70.9,30.03,SE,130,14.0,19.0,53,0.00,,,0.00,meteohub,2013-08-23 23:27:00,
2013-08-23 18:32:00,90.3,71.4,30.03,ESE,112,14.0,20.0,54,0.00,,,0.00,meteohub,2013-08-23 23:32:00,
2013-08-23 18:37:00,90.1,71.2,30.03,ESE,119,13.0,20.0,54,0.00,,,0.00,meteohub,2013-08-23 23:37:00,
2013-08-23 18:42:00,90.0,72.1,30.03,SE,124,5.0,20.0,56,0.00,,,0.00,meteohub,2013-08-23 23:42:00,
2013-08-23 18:47:00,89.6,72.3,30.03,ESE,112,13.0,20.0,57,0.00,,,0.00,meteohub,2013-08-23 23:47:00,
2013-08-23 18:52:00,89.2,72.5,30.03,ESE,104,14.0,21.0,58,0.00,,,0.00,meteohub,2013-08-23 23:52:00,
2013-08-23 18:57:00,89.1,72.9,30.03,ESE,109,16.0,23.0,59,0.00,,,0.00,meteohub,2013-08-23 23:57:00,
2013-08-23 19:02:00,88.9,73.2,30.02,SE,131,7.0,23.0,60,0.00,,,0.00,meteohub,2013-08-24 00:02:00,
2013-08-23 19:07:00,88.5,73.4,30.02,ESE,113,8.0,23.0,61,0.00,,,0.00,meteohub,2013-08-24 00:07:00,
2013-08-23 19:12:00,88.5,73.4,30.02,ESE,115,12.0,23.0,61,0.00,,,0.00,meteohub,2013-08-24 00:12:00,
2013-08-23 19:17:00,88.3,73.2,30.02,SE,134,12.0,23.0,61,0.00,,,0.00,meteohub,2013-08-24 00:17:00,
2013-08-23 19:22:00,88.2,73.4,30.02,East,99,18.0,21.0,62,0.00,,,0.00,meteohub,2013-08-24 00:22:00,
2013-08-23 19:27:00,88.0,73.4,30.02,SE,136,11.0,21.0,62,0.00,,,0.00,meteohub,2013-08-24 00:27:00,
2013-08-23 19:32:00,88.0,73.4,30.02,SE,141,8.0,21.0,62,0.00,,,0.00,meteohub,2013-08-24 00:32:00,
2013-08-23 19:37:00,87.6,73.4,30.03,SSW,195,6.0,20.0,63,0.00,,,0.00,meteohub,2013-08-24 00:37:00,
2013-08-23 19:42:00,87.4,73.2,30.03,SE,136,8.0,22.0,63,0.00,,,0.00,meteohub,2013-08-24 00:42:00,
2013-08-23 19:47:00,87.3,73.0,30.03,ESE,108,9.0,22.0,63,0.00,,,0.00,meteohub,2013-08-24 00:47:00,
2013-08-23 19:52:00,87.1,73.4,30.03,ESE,103,10.0,18.0,64,0.00,,,0.00,meteohub,2013-08-24 00:52:00,
2013-08-23 19:57:00,86.7,73.0,30.03,ESE,106,7.0,18.0,64,0.00,,,0.00,meteohub,2013-08-24 00:57:00,
2013-08-23 20:02:00,86.5,72.9,30.03,SE,139,7.0,18.0,64,0.00,,,0.00,meteohub,2013-08-24 01:02:00,
2013-08-23 20:07:00,86.5,72.9,30.02,ESE,103,14.0,18.0,64,0.00,,,0.00,meteohub,2013-08-24 01:07:00,
2013-08-23 20:12:00,86.4,72.7,30.03,ESE,103,11.0,18.0,64,0.00,,,0.00,meteohub,2013-08-24 01:12:00,
2013-08-23 20:17:00,86.2,72.5,30.03,ESE,108,12.0,16.0,64,0.00,,,0.00,meteohub,2013-08-24 01:17:00,
2013-08-23 20:22:00,85.8,72.7,30.03,SE,124,10.0,16.0,65,0.00,,,0.00,meteohub,2013-08-24 01:22:00,
2013-08-23 20:27:00,85.8,72.7,30.03,ESE,110,10.0,19.0,65,0.00,,,0.00,meteohub,2013-08-24 01:27:00,
2013-08-23 20:32:00,85.6,73.0,30.03,ESE,122,12.0,19.0,66,0.00,,,0.00,meteohub,2013-08-24 01:32:00,
2013-08-23 20:37:00,85.5,72.9,30.03,ESE,116,15.0,19.0,66,0.00,,,0.00,meteohub,2013-08-24 01:37:00,
2013-08-23 20:42:00,85.3,72.7,30.04,ESE,118,14.0,17.0,66,0.00,,,0.00,meteohub,2013-08-24 01:42:00,
2013-08-23 20:47:00,85.1,72.9,30.04,ESE,121,10.0,19.0,67,0.00,,,0.00,meteohub,2013-08-24 01:47:00,
2013-08-23 20:52:00,84.9,72.3,30.04,ESE,121,12.0,19.0,66,0.00,,,0.00,meteohub,2013-08-24 01:52:00,
2013-08-23 20:57:00,84.7,72.1,30.04,ESE,103,9.0,19.0,66,0.00,,,0.00,meteohub,2013-08-24 01:57:00,
2013-08-23 21:02:00,84.6,72.0,30.04,ESE,116,13.0,20.0,66,0.00,,,0.00,meteohub,2013-08-24 02:02:00,
2013-08-23 21:07:00,84.6,72.0,30.05,ESE,105,11.0,20.0,66,0.00,,,0.00,meteohub,2013-08-24 02:07:00,
2013-08-23 21:12:00,84.4,71.8,30.05,SE,135,7.0,17.0,66,0.00,,,0.00,meteohub,2013-08-24 02:12:00,
2013-08-23 21:17:00,84.4,71.2,30.05,East,99,14.0,17.0,65,0.00,,,0.00,meteohub,2013-08-24 02:17:00,
2013-08-23 21:22:00,84.2,71.2,30.05,East,98,9.0,18.0,65,0.00,,,0.00,meteohub,2013-08-24 02:22:00,
2013-08-23 21:27:00,84.0,71.4,30.06,ESE,107,13.0,19.0,66,0.00,,,0.00,meteohub,2013-08-24 02:27:00,
2013-08-23 21:32:00,83.8,71.2,30.06,ESE,113,12.0,19.0,66,0.00,,,0.00,meteohub,2013-08-24 02:32:00,
2013-08-23 21:37:00,83.7,71.6,30.06,ESE,113,12.0,19.0,67,0.00,,,0.00,meteohub,2013-08-24 02:37:00,
2013-08-23 21:42:00,83.7,71.6,30.06,ESE,110,12.0,19.0,67,0.00,,,0.00,meteohub,2013-08-24 02:42:00,
2013-08-23 21:47:00,83.5,71.8,30.06,ESE,109,11.0,17.0,68,0.00,,,0.00,meteohub,2013-08-24 02:47:00,
2013-08-23 21:52:00,83.3,71.6,30.06,ESE,111,13.0,17.0,68,0.00,,,0.00,meteohub,2013-08-24 02:52:00,
2013-08-23 21:56:00,83.1,71.4,30.07,East,93,10.0,17.0,68,0.00,,,0.00,meteohub,2013-08-24 02:56:00,
2013-08-23 22:02:00,82.9,71.2,30.07,ESE,106,13.0,17.0,68,0.00,,,0.00,meteohub,2013-08-24 03:02:00,
2013-08-23 22:07:00,82.8,71.1,30.07,SSE,165,5.0,16.0,68,0.00,,,0.00,meteohub,2013-08-24 03:07:00,
2013-08-23 22:12:00,82.8,71.1,30.07,ESE,116,13.0,16.0,68,0.00,,,0.00,meteohub,2013-08-24 03:12:00,
2013-08-23 22:17:00,82.6,70.9,30.08,East,100,11.0,17.0,68,0.00,,,0.00,meteohub,2013-08-24 03:17:00,
2013-08-23 22:22:00,82.4,70.7,30.08,East,95,9.0,17.0,68,0.00,,,0.00,meteohub,2013-08-24 03:22:00,
2013-08-23 22:27:00,82.2,70.5,30.08,ESE,106,10.0,17.0,68,0.00,,,0.00,meteohub,2013-08-24 03:27:00,
2013-08-23 22:32:00,82.0,70.3,30.08,SSE,149,7.0,16.0,68,0.00,,,0.00,meteohub,2013-08-24 03:32:00,
2013-08-23 22:37:00,81.9,70.7,30.08,ESE,110,7.0,17.0,69,0.00,,,0.00,meteohub,2013-08-24 03:37:00,
2013-08-23 22:42:00,81.7,70.5,30.08,ESE,119,11.0,17.0,69,0.00,,,0.00,meteohub,2013-08-24 03:42:00,
2013-08-23 22:47:00,81.5,70.7,30.08,SE,139,11.0,17.0,70,0.00,,,0.00,meteohub,2013-08-24 03:47:00,
2013-08-23 22:52:00,81.3,71.1,30.08,ESE,117,11.0,15.0,71,0.00,,,0.00,meteohub,2013-08-24 03:52:00,
2013-08-23 22:57:00,81.1,70.9,30.08,SSE,151,7.0,17.0,71,0.00,,,0.00,meteohub,2013-08-24 03:57:00,
2013-08-23 23:01:00,81.1,71.2,30.08,ESE,120,13.0,17.0,72,0.00,,,0.00,meteohub,2013-08-24 04:01:00,
2013-08-23 23:02:00,81.0,71.1,30.08,SSE,152,7.0,17.0,72,0.00,,,0.00,meteohub,2013-08-24 04:02:00,
2013-08-23 23:07:00,81.0,71.1,30.08,SE,124,5.0,17.0,72,0.00,,,0.00,meteohub,2013-08-24 04:07:00,
2013-08-23 23:12:00,80.8,71.2,30.08,ESE,113,9.0,17.0,73,0.00,,,0.00,meteohub,2013-08-24 04:12:00,
2013-08-23 23:17:00,80.6,71.1,30.08,SSW,193,8.0,17.0,73,0.00,,,0.00,meteohub,2013-08-24 04:17:00,
2013-08-23 23:22:00,80.4,71.4,30.09,SSE,165,8.0,17.0,74,0.00,,,0.00,meteohub,2013-08-24 04:22:00,
2013-08-23 23:27:00,80.2,71.2,30.09,SSE,148,6.0,15.0,74,0.00,,,0.00,meteohub,2013-08-24 04:27:00,
2013-08-23 23:32:00,80.1,71.4,30.09,South,183,3.0,15.0,75,0.00,,,0.00,meteohub,2013-08-24 04:32:00,
2013-08-23 23:37:00,79.9,71.2,30.09,SE,136,4.0,16.0,75,0.00,,,0.00,meteohub,2013-08-24 04:37:00,
2013-08-23 23:42:00,79.9,71.2,30.09,SSE,155,7.0,16.0,75,0.00,,,0.00,meteohub,2013-08-24 04:42:00,
2013-08-23 23:47:00,79.5,71.2,30.09,SE,142,4.0,15.0,76,0.00,,,0.00,meteohub,2013-08-24 04:47:00,
2013-08-23 23:52:00,79.5,71.2,30.09,ESE,114,6.0,13.0,76,0.00,,,0.00,meteohub,2013-08-24 04:52:00,
2013-08-23 23:57:00,79.3,71.1,30.09,SE,139,4.0,14.0,76,0.00,,,0.00,meteohub,2013-08-24 04:57:00,